Regional Weather Roundup
Issued by NWS

Home | Current Version | Previous Version | Text Only | Print | Product List | Glossary Off
Versions: 1 2 3 4 5 6 7 8 9 10 11 12 13 14 15 16 17 18 19 20 21 22 23 24 25 26 27 28 29 30 31 32 33 34 35 36 37 38 39 40 41 42 43 44 45 46 47 48 49 50

000
ASUS43 KMPX 310710
RWRMN
WEATHER ROUNDUP FOR MINNESOTA
NATIONAL WEATHER SERVICE TWIN CITIES/CHANHASSEN MN
200 AM CDT SUN JUL 31 2016


NOTE: "FAIR" INDICATES FEW OR NO CLOUDS BELOW 12,000 FEET WITH NO
SIGNIFICANT WEATHER AND/OR OBSTRUCTIONS TO VISIBILITY. N/A MEANS
CURRENT SKY AND/OR WEATHER CONDITIONS ARE NOT AVAILABLE.

MNZ060>063-068>070-310800-
   Twin Cities Metro

CITY           SKY/WX    TMP DP  RH WIND       PRES   REMARKS
TWIN CITIES    PTCLDY    69  63  81 SE6       29.99F
ST PAUL        CLEAR     67  65  93 SE5       29.99F
CRYSTAL        CLEAR     70  62  76 SE3       29.98S
BLAINE         CLEAR     66  66 100 CALM      29.99F
LAKEVILLE      CLEAR     61  61 100 CALM      30.00R
EDEN PRAIRIE   CLEAR     68  63  84 SE5       29.98S
LAKEVILLE      CLEAR     61  61 100 CALM      30.00R
SOUTH ST PAUL  CLEAR     68  65  91 CALM      29.99S
LAKE ELMO      FAIR      68  64  88 SE3       30.01F
$$
MNZ001>005-007-008-013>017-022>024-027-028-310800-
   Northwest Minnesota

CITY           SKY/WX    TMP DP  RH WIND       PRES   REMARKS
BEMIDJI        CLEAR     61  58  91 SE6       29.97S
HALLOCK        CLEAR     64  61  88 SE8       29.87F
ROSEAU         CLEAR     64  61  88 S7        29.92F HAZE
WARROAD        MOCLDY    66  63  88 S7        29.94S
THIEF RVR FALL CLEAR     60  58  92 SE9       29.93F
CROOKSTON      PTCLDY    63  59  88 S7        29.91S
FOSSTON        CLEAR     59  54  82 SE6       29.95S
DETROIT LAKES  CLEAR     64  59  82 S5        29.97R
MOORHEAD       CLEAR     64  57  77 SE5       29.92S
PARK RAPIDS    CLEAR     65  61  87 SE8       29.97S
MAHNOMEN       FAIR      63  58  85 SE6       29.94S
$$
MNZ006-009>011-018-025>026-310800-
   North Central Minnesota

CITY           SKY/WX    TMP DP  RH WIND       PRES   REMARKS
BAUDETTE       CLEAR     61  57  87 S6        29.96S
FLAG ISLAND    CLOUDY    72  64  78 S12G17    29.93S
INTL FALLS     CLEAR     59  57  93 SE3       29.99S
WASKISH        CLEAR     61  59  94 SE5       29.97F
BIG FORK       CLEAR     63  61  94 SE3       30.01S
LONGVILLE      CLEAR     61  61 100 CALM      29.99S
GRAND RAPIDS   CLEAR     61  60  97 CALM      30.03S
CRANE LAKE     CLEAR     52  52 100 CALM      30.03S
ORR            PTCLDY    61  55  82 CALM      30.00S
COOK           CLEAR     61  59  94 CALM      30.03S
WALKER         FAIR      65  62  89 SE5       29.98S
$$
MNZ012-019>021-037-310800-
   Northeast Minnesota

CITY           SKY/WX    TMP DP  RH WIND       PRES   REMARKS
DULUTH         MOCLDY    61  59  93 E8        30.04S
ELY            CLOUDY    59  55  88 CALM      30.04S
HIBBING        FOG       51  51 100 CALM      30.03S VSB 1/2
EVELETH        CLEAR     58  56  96 CALM      30.05S
DULUTH HARBOR  PTCLDY    64  63  94 NE9       30.04S
TWO HARBORS    CLEAR     63  57  82 CALM      30.02S
SILVER BAY     PTCLDY    57  54  88 CALM      30.03S
GRAND MARAIS     N/A     63  53  70 CALM      30.03F
G MARAIS ARPRT MOCLDY    55  50  82 CALM      30.09S
$$
MNZ029>031-032-039>041-046>048-054>057-064-310800-
   West Central Minnesota

CITY           SKY/WX    TMP DP  RH WIND       PRES   REMARKS
FERGUS FALLS   CLEAR     64  57  77 SE8       29.95F
WHEATON        CLEAR     61  59  94 SE8       29.94F
MORRIS         CLEAR     63  59  88 SE6       29.95S
ALEXANDRIA     CLEAR     63  57  81 SE7       29.99S
ELBOW LAKE     FAIR      64  58  82 E7        29.96S
WADENA         CLEAR     57  57 100 CALM      29.97S
GLENWOOD       CLEAR     61  57  88 SE6       29.99R
APPLETON       CLEAR     64  57  77 SE6       29.94F
BENSON         CLEAR     64  55  72 S7        29.96S
ORTONVILLE     CLEAR     63  57  82 SE7       29.93F
MADISON        CLEAR     61  57  88 SE6       29.94F
WILLMAR        FAIR      64  61  88 SE6       29.99S
$$
MNZ033>034-036-042>043-049>051-058-059-310800-
   Central Minnesota

CITY           SKY/WX    TMP DP  RH WIND       PRES   REMARKS
ST CLOUD       CLEAR     65  64  97 E5        29.99R
SAUK CENTRE    FAIR      58  57  94 CALM      29.99R
PAYNESVILLE    PTCLDY    67  67  98 SE5       29.99S
AITKIN         CLEAR     63  57  82 CALM      29.99F
PINE RIVER     CLEAR     63  63 100 SE5       30.01F
BRAINERD       CLEAR     64  62  93 SE3       29.99F
STAPLES        CLEAR     64  63  94 CALM      29.98S
LONG PRAIRIE   FAIR      59  59 100 E3        30.00R
LITTLE FALLS   CLEAR     63  61  94 CALM      29.99R
LITCHFIELD     CLEAR     64  64 100 CALM      30.00R
BUFFALO        CLEAR     66  62  87 CALM      30.00R
MAPLE LAKE     CLEAR     68  66  93 CALM      30.00S
HUTCHINSON     CLEAR     65  64  97 CALM      30.00R
$$
MNZ037-044-045-052-053-310800-
   East Central Minnesota

CITY           SKY/WX    TMP DP  RH WIND       PRES   REMARKS
PRINCETON      CLEAR     64  61  88 CALM      30.00R
MORA           CLEAR     61  59  94 CALM      30.02S
CAMBRIDGE      CLEAR     70  61  73 CALM      29.98S
RUSH CITY      RAIN      62  61  96 CALM      30.01S
MOOSE LAKE     CLOUDY    61  59  94 CALM      30.01S
HINCKLEY       FAIR      61  61 100 CALM      30.01S
CLOQUET        CLOUDY    61  57  88 E5        30.03F FOG
MCGREGOR       CLEAR     61  59  94 E3        30.02S
$$
MNZ071>073-080-081-089-090-097-098-310800-
   Southwest Minnesota

CITY           SKY/WX    TMP DP  RH WIND       PRES   REMARKS
MONTEVIDEO     CLEAR     63  59  88 S7        29.98S
GRANITE FALLS  CLEAR     65  62  90 SE6       29.98S
CANBY          CLEAR     62  59  90 E3        29.95F
MARSHALL       CLEAR     65  61  87 S8        29.96F
REDWOOD FALLS  CLEAR     65  62  90 SE7       29.97R
OLIVIA         CLEAR     64  61  88 SE5       29.97S
PIPESTONE      CLEAR     63  59  88 SE6       29.97F
WINDOM         CLEAR     66  63  88 SE6       29.99S
WORTHINGTON    CLEAR     65  62  90 S8        29.99F
JACKSON        CLEAR     66  61  82 SE7       30.00S
TRACY          CLEAR     65  63  90 S7        29.97F
SLAYTON        PTCLDY    57  57  97 CALM      30.00R
$$
MNZ065>067-074>077-082>085-091>093-310800-
   South Central Minnesota

CITY           SKY/WX    TMP DP  RH WIND       PRES   REMARKS
MANKATO        CLEAR     64  59  82 S6        30.00R
NEW ULM        CLEAR     64  64 100 S6        29.99R
ST JAMES       CLEAR     61  57  88 SE5       29.99S
FAIRMONT       CLEAR     63  59  88 S5        29.99R
GLENCOE        CLEAR     65  64  97 CALM      29.99R
FARIBAULT      CLEAR     64  63  94 S3        30.00S
OWATONNA       CLEAR     66  63  88 SE5       30.01R
WASECA         CLEAR     63  61  94 SE3       30.02R
ALBERT LEA     MOCLDY    66  64  94 S6        30.01R
$$
MNZ078>079-086>088-094>096-310800-
   Southeast Minnesota

CITY           SKY/WX    TMP DP  RH WIND       PRES   REMARKS
ROCHESTER      CLOUDY    66  64  93 SE8       30.02F
RED WING       PTCLDY    66  64  94 CALM      29.99F
STANTON        CLEAR     64  61  88 CALM      29.98F
DODGE CENTER   PTCLDY    63  61  94 SE7       30.01F
WINONA         CLOUDY    70  64  83 S3        30.02S
AUSTIN         PTCLDY    64  63  94 CALM      30.01S
PRESTON        CLOUDY    67  61  81 SE5       30.03F
$$
ABBREVIATIONS USED IN REMARKS
   TC - TEMPERATURES IN CELSIUS
  WCI - WIND CHILL INDEX
   HX - HEAT INDEX
  VSB - VISIBILITY
$$




USA.gov is the U.S. government's official web portal to all federal, state and local government web resources and services.